Weather History for Augusta Bush, GA

Change the Weather History Date:

Saturday, October 27, 2012

  Actual Average Record
Temperature  
Mean Temperature 69 °F 61 °F  
Max Temperature 76 °F 75 °F 90 °F (1919)
Min Temperature 62 °F 47 °F 29 °F (1962)
Degree Days  
Heating Degree Days 0 5  
Month to date heating degree days 53 81  
Since 1 July heating degree days 53 88  
Cooling Degree Days 4 1  
Month to date cooling degree days 83 83  
Year to date cooling degree days 2162 2067  
Growing Degree Days 18 (Base 50)    
Moisture  
Dew Point 58 °F    
Average Humidity 69    
Maximum Humidity 84    
Minimum Humidity 53    
Precipitation  
Precipitation 0.00 in 0.07 in 2.43 in (1911)
Month to date precipitation 1.36 2.94  
Year to date precipitation 30.31 37.03  
Sea Level Pressure  
Sea Level Pressure 29.75 in    
Wind  
Wind Speed 12 mph (North)    
Max Wind Speed 17 mph    
Max Gust Speed 24 mph    
Visibility 10 miles    
Events      
T = Trace of Precipitation, MM = Missing Value Source: NWS Daily Summary

Daily Weather History Graph

Daily Weather History Graph

Search for Another Location

Airport:

Trip Planner

Search our weather history database for the weather conditions in past years. The results will help you decide how hot, cold, wet, or windy it might be!

Date:

Astronomy

Oct. 27, 2012 Rise Set
Actual Time 7:42 AM EDT 6:40 PM EDT
Civil Twilight 7:17 AM EDT 7:05 PM EDT
Nautical Twilight 6:47 AM EDT 7:34 PM EDT
Astronomical Twilight 6:18 AM EDT 8:03 PM EDT
Moon 5:22 PM EDT (10/27) 5:40 AM EDT (10/27)
Length of Visible Light 11h 48m
Length of Day
10h 57m
Waxing Gibbous, 96% of the Moon is Illuminated
Oct 27
Waxing Gibbous
Oct 29
Full
Nov 6
Last Quarter
Nov 13
New
Nov 20
First Quarter

Hourly Weather History & Observations

Time (EDT) Temp. Dew Point Humidity Pressure Visibility Wind Dir Wind Speed Gust Speed Precip Events Conditions
12:53 AM 64.0 °F 57.9 °F 80% 29.85 in 10.0 mi North 8.1 mph - N/A   Clear
1:53 AM 64.9 °F 57.9 °F 78% 29.82 in 10.0 mi North 10.4 mph - N/A   Clear
2:53 AM 62.1 °F 57.9 °F 86% 29.80 in 10.0 mi NNW 9.2 mph - N/A   Clear
3:53 AM 62.1 °F 57.0 °F 84% 29.79 in 10.0 mi North 10.4 mph - N/A   Scattered Clouds
4:29 AM 62.6 °F 57.2 °F 82% 29.78 in 10.0 mi North 9.2 mph - N/A   Mostly Cloudy
4:53 AM 63.0 °F 57.9 °F 84% 29.77 in 10.0 mi North 10.4 mph - N/A   Overcast
5:53 AM 63.0 °F 57.9 °F 84% 29.77 in 10.0 mi North 10.4 mph - N/A   Overcast
6:53 AM 64.0 °F 57.9 °F 80% 29.77 in 10.0 mi North 11.5 mph - N/A   Overcast
7:53 AM 64.9 °F 59.0 °F 81% 29.78 in 10.0 mi North 9.2 mph 18.4 mph N/A   Overcast
8:53 AM 64.9 °F 59.0 °F 81% 29.80 in 10.0 mi North 13.8 mph - N/A   Overcast
9:53 AM 66.9 °F 59.0 °F 76% 29.80 in 10.0 mi North 16.1 mph 21.9 mph N/A   Overcast
10:53 AM 69.1 °F 59.0 °F 70% 29.79 in 10.0 mi North 16.1 mph 24.2 mph N/A   Scattered Clouds
11:53 AM 71.1 °F 59.0 °F 66% 29.77 in 10.0 mi North 18.4 mph 24.2 mph N/A   Partly Cloudy
12:53 PM 73.0 °F 59.0 °F 61% 29.74 in 10.0 mi North 13.8 mph - N/A   Partly Cloudy
1:53 PM 75.0 °F 57.9 °F 55% 29.71 in 10.0 mi NNE 15.0 mph 20.7 mph N/A   Partly Cloudy
2:53 PM 75.0 °F 57.9 °F 55% 29.68 in 10.0 mi North 15.0 mph - N/A   Clear
3:53 PM 75.0 °F 57.0 °F 53% 29.67 in 10.0 mi North 11.5 mph - N/A   Scattered Clouds
4:53 PM 73.9 °F 55.9 °F 53% 29.66 in 10.0 mi North 9.2 mph - N/A   Partly Cloudy
5:53 PM 73.0 °F 57.0 °F 57% 29.66 in 10.0 mi North 11.5 mph - N/A   Clear
6:53 PM 70.0 °F 57.0 °F 63% 29.68 in 10.0 mi North 10.4 mph - N/A   Partly Cloudy
7:53 PM 69.1 °F 57.0 °F 65% 29.69 in 10.0 mi North 8.1 mph - N/A   Clear
8:53 PM 66.9 °F 57.0 °F 70% 29.70 in 10.0 mi North 9.2 mph - N/A   Partly Cloudy
9:53 PM 66.9 °F 55.9 °F 68% 29.70 in 10.0 mi North 9.2 mph - N/A   Partly Cloudy
10:53 PM 66.0 °F 55.9 °F 70% 29.72 in 10.0 mi NNW 10.4 mph - N/A   Clear
11:53 PM 66.2 °F 55.4 °F 68% 29.72 in 10.0 mi North 9.2 mph - N/A   Clear